Lynchburg, VA

9:51 AM EST on November 14, 2019 (GMT -0500)
Lynchburg Regional-Glenn

Weather History for KLYH - September, 2019

Change the Weather History Date:

Thursday, September 12, 2019

  Actual Average Record
Temperature  
Mean Temperature 81 °F 68 °F  
Max Temperature 96 °F 80 °F 96 °F (1895)
Min Temperature 66 °F 57 °F 39 °F (1917)
Degree Days  
Heating Degree Days 0 1  
Month to date heating degree days 0 5  
Since 1 July heating degree days 0 8  
Cooling Degree Days 16 5  
Month to date cooling degree days 150 70  
Year to date cooling degree days 1365 968  
Growing Degree Days 31 (Base 50)    
Moisture  
Dew Point 67 °F    
Average Humidity 68    
Maximum Humidity 100    
Minimum Humidity 35    
Precipitation  
Precipitation 0.00 in 0.13 in 2.75 in (1893)
Month to date precipitation T 1.57  
Year to date precipitation 27.58 29.50  
Snow  
Snow 0.00 in - - ()
Month to date snowfall 0.0  
Since 1 July snowfall 0.0  
Since 1 September snowfall 0.0  
Snow Depth 0.00 in    
Sea Level Pressure  
Sea Level Pressure 30.11 in    
Wind  
Wind Speed 3 mph (SW)    
Max Wind Speed 14 mph    
Max Gust Speed 22 mph    
Visibility 10 miles    
Events Thunderstorm    
T = Trace of Precipitation, MM = Missing Value Source: NWS Daily Summary

Daily Weather History Graph

Daily Weather History Graph

Search for Another Location

Airport or City:

Astronomy

Sep. 12, 2019 Rise Set
Actual Time 6:56 AM EDT 7:29 PM EDT
Civil Twilight 6:29 AM EDT 7:55 PM EDT
Nautical Twilight 5:58 AM EDT 8:26 PM EDT
Astronomical Twilight 5:27 AM EDT 8:58 PM EDT
Moon 7:09 PM EDT (9/12) 5:17 AM EDT (9/12)
Length of Visible Light 13h 25m
Length of Day
12h 33m
Waxing Gibbous, 98% of the Moon is Illuminated
Sep 12
Waxing Gibbous
Sep 14
Full
Sep 21
Last Quarter
Sep 28
New
Oct 5
First Quarter

Hourly Weather History & Observations

Time (EDT) Temp. Heat Index Dew Point Humidity Pressure Visibility Wind Dir Wind Speed Gust Speed Precip Events Conditions
12:54 AM 71.1 °F - 66.9 °F 87% 30.13 in 10.0 mi South 4.6 mph - N/A   Clear
1:54 AM 73.9 °F - 68.0 °F 82% 30.11 in 10.0 mi SW 6.9 mph - N/A   Clear
2:54 AM 73.0 °F - 68.0 °F 84% 30.08 in 10.0 mi SW 3.5 mph - N/A   Clear
3:54 AM 70.0 °F - 68.0 °F 93% 30.09 in 10.0 mi Calm Calm - N/A   Clear
4:54 AM 69.1 °F - 66.9 °F 93% 30.09 in 9.0 mi Calm Calm - N/A   Clear
5:54 AM 68.0 °F - 66.9 °F 96% 30.11 in 7.0 mi Calm Calm - N/A   Clear
6:54 AM 66.9 °F - 66.9 °F 100% 30.12 in 6.0 mi Calm Calm - N/A   Clear
7:54 AM 72.0 °F - 69.1 °F 91% 30.13 in 10.0 mi Calm Calm - N/A   Clear
8:54 AM 80.1 °F 82.9 °F 69.1 °F 69% 30.14 in 10.0 mi Calm Calm - N/A   Clear
9:54 AM 86.0 °F 88.8 °F 66.9 °F 53% 30.14 in 10.0 mi NNE 4.6 mph - N/A   Clear
10:54 AM 90.0 °F 92.8 °F 66.9 °F 46% 30.14 in 10.0 mi Variable 5.8 mph - N/A   Clear
11:54 AM 91.0 °F 93.8 °F 66.0 °F 44% 30.13 in 10.0 mi Variable 3.5 mph - N/A   Clear
12:54 PM 93.9 °F 97.0 °F 66.0 °F 40% 30.12 in 10.0 mi Variable 6.9 mph - N/A   Clear
1:54 PM 95.0 °F 97.4 °F 64.9 °F 37% 30.10 in 10.0 mi Variable 3.5 mph - N/A   Clear
2:54 PM 96.1 °F 98.3 °F 64.0 °F 35% 30.08 in 10.0 mi Variable 3.5 mph - N/A   Clear
3:54 PM 91.9 °F 93.3 °F 64.0 °F 39% 30.07 in 10.0 mi Variable 4.6 mph - N/A   Partly Cloudy
4:03 PM 91.9 °F 93.3 °F 64.0 °F 39% 30.10 in 10.0 mi Calm Calm - N/A Thunderstorm Thunderstorm
4:35 PM 82.9 °F 86.5 °F 69.1 °F 63% 30.11 in 10.0 mi SW 6.9 mph - N/A Thunderstorm Partly Cloudy
4:54 PM 80.1 °F 83.2 °F 70.0 °F 71% 30.08 in 10.0 mi SSW 9.2 mph - N/A Thunderstorm Clear
5:28 PM 78.1 °F - 69.1 °F 74% 30.11 in 10.0 mi SW 5.8 mph - N/A   Partly Cloudy
5:54 PM 82.0 °F 84.9 °F 68.0 °F 62% 30.08 in 10.0 mi Calm Calm - N/A   Partly Cloudy
7:54 PM 75.9 °F - 66.9 °F 74% 30.10 in 10.0 mi Calm Calm - N/A   Clear
8:54 PM 75.0 °F - 66.9 °F 76% 30.11 in 10.0 mi Calm Calm - N/A   Mostly Cloudy
9:54 PM 73.0 °F - 66.9 °F 81% 30.11 in 10.0 mi Calm Calm - N/A   Clear
10:54 PM 72.0 °F - 66.9 °F 84% 30.11 in 10.0 mi Calm Calm - N/A   Clear
11:54 PM 73.0 °F - 69.1 °F 87% 30.12 in 10.0 mi Calm Calm - N/A   Clear